sat.trackr.live / text

‹ back to catalog

STARLINK-32171

NORAD 60332 · 2024-136D

PAYLOAD ACTIVE UNKNOWN

§ Identity

Operator
Country
US
Launch date
2024-08-02
Launch site
AFETR
Launch vehicle
Mass (kg)
RCS (m²)

Purposes: comms

External: N2YO · Heavens-Above · Gunter

§ Orbital elements

Epoch: 2026-05-25T01:55:57.968256Z

Period
94.11 min
Inclination
53.1600°
Eccentricity
0.0001648
Mean motion
15.30189657 rev/d
Perigee alt
474.1 km
Apogee alt
476.4 km
Semi-major
6,853.4 km
B*
1.6660e-5
RAAN
80.6149°
Arg perigee
91.4289°
Mean anomaly
268.6901°
Rev number
10,136

§ Raw data

STARLINK-321711 60332U 24136D   26145.08053204  .00000134  00000+0  16660-4 0  99902 60332  53.1600  80.6149 0001648  91.4289 268.6901 15.30189657101369

JSON: /api/v1/satellites/60332 · /tle

For live sub-satellite position, see the globe view (requires WebGL).

§ Visibility from observer

Set your observer location to see the next 7 days of passes ≥ 10°. The values pass through the URL so the page stays shareable.

No JS? Fill the form by hand. The geolocation button needs JavaScript.